,,,PA_Meas_PMT16A,,PR_Meas_QMR101_102,,RH_Meas_QMH101,,SR_Meas_QMS101,,TA_Meas_QMH101,,GenWind,,GenWind,
date,time,status,PA,status,PR,status,RH,status,SR,status,TA,status,DirAvg,status,SpdAvg,
2012-02-07, 00:00:04,VALID,1010.1,VALID,0,VALID,104,VALID,0,VALID,24.2981,VALID,65,VALID,0.236328,
2012-02-07, 00:01:04,VALID,1010.09,VALID,0,VALID,104,VALID,0,VALID,24.3,VALID,64,VALID,0.577344,
2012-02-07, 00:02:04,VALID,1010.1,VALID,0,VALID,104,VALID,0,VALID,24.3194,VALID,58,VALID,0.660937,
2012-02-07, 00:03:04,VALID,1010.04,VALID,0,VALID,104,VALID,0,VALID,24.2981,VALID,58,VALID,0.295312,
2012-02-07, 00:04:04,VALID,1010.09,VALID,0,VALID,104,VALID,0,VALID,24.3194,VALID,59,VALID,0.632031,
2012-02-07, 00:05:04,VALID,1010.03,VALID,0,VALID,104,VALID,0,VALID,24.3,VALID,60,VALID,0.714063,
2012-02-07, 00:06:04,VALID,1010.08,VALID,0,VALID,104,VALID,0,VALID,24.2805,VALID,60,VALID,0.694531,
2012-02-07, 00:07:04,VALID,1010.03,VALID,0,VALID,104,VALID,0,VALID,24.2981,VALID,60,VALID,0.750391,
2012-02-07, 00:08:04,VALID,1010,VALID,0,VALID,104,VALID,0.112112,VALID,24.2963,VALID,66,VALID,0.773438,
2012-02-07, 00:09:04,VALID,1009.98,VALID,0,VALID,104,VALID,0.112112,VALID,24.3158,VALID,68,VALID,1.00117,
2012-02-07, 00:10:04,VALID,1009.96,VALID,0,VALID,104,VALID,0.112112,VALID,24.2963,VALID,72,VALID,0.646484,
2012-02-07, 00:11:04,VALID,1009.95,VALID,0,VALID,104,VALID,0,VALID,24.2963,VALID,85,VALID,0.941797,
2012-02-07, 00:12:04,VALID,1009.95,VALID,0,VALID,104,VALID,0.112112,VALID,24.3176,VALID,70,VALID,0.641016,
2012-02-07, 00:13:04,VALID,1009.92,VALID,0,VALID,104,VALID,0,VALID,24.2963,VALID,69,VALID,0.534766,
2012-02-07, 00:14:04,VALID,1009.94,VALID,0,VALID,104,VALID,0,VALID,24.2768,VALID,69,VALID,0.274219,
2012-02-07, 00:15:04,VALID,1009.94,VALID,0,VALID,104,VALID,0.112112,VALID,24.2768,VALID,69,VALID,0.636328,
2012-02-07, 00:16:04,VALID,1009.91,VALID,0,VALID,104,VALID,0,VALID,24.2768,VALID,69,VALID,0.326172,
2012-02-07, 00:17:04,VALID,1009.91,VALID,0,VALID,104,VALID,0,VALID,24.2786,VALID,69,VALID,0.251953,
2012-02-07, 00:18:04,VALID,1009.91,VALID,0,VALID,104,VALID,0.112112,VALID,24.2573,VALID,52,VALID,0.616406,
2012-02-07, 00:19:04,VALID,1009.9,VALID,0,VALID,104,VALID,0,VALID,24.2378,VALID,36,VALID,0.496094,
2012-02-07, 00:20:04,VALID,1009.9,VALID,0,VALID,104,VALID,0.112112,VALID,24.2786,VALID,36,VALID,0.370703,
2012-02-07, 00:21:04,VALID,1009.85,VALID,0,VALID,104,VALID,0.112112,VALID,24.2183,VALID,36,VALID,0.414453,
2012-02-07, 00:22:04,VALID,1009.82,VALID,0,VALID,104,VALID,0.112112,VALID,24.1988,VALID,36,VALID,0.297656,
2012-02-07, 00:23:04,VALID,1009.84,VALID,0,VALID,104,VALID,0.112112,VALID,24.2202,VALID,36,VALID,0.0375,
2012-02-07, 00:24:04,VALID,1009.8,VALID,0,VALID,104,VALID,0.112112,VALID,24.1793,VALID,36,VALID,0.0863281,
2012-02-07, 00:25:04,VALID,1009.79,VALID,0,VALID,104,VALID,0,VALID,24.2007,VALID,36,VALID,0.1625,
2012-02-07, 00:26:04,VALID,1009.78,VALID,0,VALID,104,VALID,0.112112,VALID,24.1599,VALID,36,VALID,0.204297,
2012-02-07, 00:27:04,VALID,1009.79,VALID,0,VALID,104,VALID,0.112112,VALID,24.1812,VALID,36,VALID,0.442187,
2012-02-07, 00:28:04,VALID,1009.79,VALID,0,VALID,104,VALID,0,VALID,24.1599,VALID,36,VALID,0.444141,
2012-02-07, 00:29:04,VALID,1009.8,VALID,0,VALID,104,VALID,0.112112,VALID,24.1599,VALID,36,VALID,0.371484,
2012-02-07, 00:30:04,VALID,1009.79,VALID,0,VALID,104,VALID,0.112112,VALID,24.1617,VALID,36,VALID,0.611328,
2012-02-07, 00:31:04,VALID,1009.75,VALID,0,VALID,104,VALID,0.112112,VALID,24.1404,VALID,36,VALID,0.269922,
2012-02-07, 00:32:04,VALID,1009.77,VALID,0,VALID,104,VALID,0.112112,VALID,24.1404,VALID,67,VALID,0.631641,
2012-02-07, 00:33:04,VALID,1009.76,VALID,0,VALID,104,VALID,0,VALID,24.1812,VALID,86,VALID,0.960156,
2012-02-07, 00:34:04,VALID,1009.76,VALID,0,VALID,104,VALID,0,VALID,24.1812,VALID,86,VALID,0.655078,
2012-02-07, 00:35:04,VALID,1009.73,VALID,0,VALID,104,VALID,0,VALID,24.1599,VALID,86,VALID,0.800781,
2012-02-07, 00:36:04,VALID,1009.71,VALID,0,VALID,104,VALID,0,VALID,24.1599,VALID,86,VALID,0.697656,
2012-02-07, 00:37:04,VALID,1009.69,VALID,0,VALID,104,VALID,0,VALID,24.1599,VALID,86,VALID,0.458203,
2012-02-07, 00:38:04,VALID,1009.69,VALID,0,VALID,104,VALID,0,VALID,24.1812,VALID,68,VALID,0.763672,
2012-02-07, 00:39:04,VALID,1009.63,VALID,0,VALID,104,VALID,0,VALID,24.1422,VALID,68,VALID,0.287891,
2012-02-07, 00:40:04,VALID,1009.62,VALID,0,VALID,104,VALID,0,VALID,24.183,VALID,63,VALID,0.642969,
2012-02-07, 00:41:04,VALID,1009.61,VALID,0,VALID,104,VALID,0,VALID,24.1617,VALID,63,VALID,0.830859,
2012-02-07, 00:42:04,VALID,1009.58,VALID,0,VALID,104,VALID,0,VALID,24.1617,VALID,34,VALID,0.500781,
2012-02-07, 00:43:04,VALID,1009.56,VALID,0,VALID,104,VALID,0,VALID,24.1635,VALID,43,VALID,0.423828,
2012-02-07, 00:44:04,VALID,1009.54,VALID,0,VALID,104,VALID,0,VALID,24.1617,VALID,51,VALID,0.474219,
2012-02-07, 00:45:04,VALID,1009.52,VALID,0,VALID,104,VALID,0,VALID,24.1227,VALID,69,VALID,0.873438,
2012-02-07, 00:46:04,VALID,1009.53,VALID,0,VALID,104,VALID,0,VALID,24.1635,VALID,90,VALID,0.972266,
2012-02-07, 00:47:04,VALID,1009.51,VALID,0,VALID,104,VALID,0,VALID,24.1635,VALID,90,VALID,0.456641,
2012-02-07, 00:48:04,VALID,1009.52,VALID,0,VALID,104,VALID,0,VALID,24.1635,VALID,88,VALID,0.895312,
2012-02-07, 00:49:04,VALID,1009.53,VALID,0,VALID,104,VALID,0,VALID,24.1635,VALID,79,VALID,1.12227,
2012-02-07, 00:50:04,VALID,1009.52,VALID,0,VALID,104,VALID,0,VALID,24.1617,VALID,79,VALID,0.772656,
2012-02-07, 00:51:04,VALID,1009.51,VALID,0,VALID,104,VALID,0,VALID,24.183,VALID,103,VALID,0.708594,
2012-02-07, 00:52:04,VALID,1009.46,VALID,0,VALID,104,VALID,0,VALID,24.1617,VALID,103,VALID,0.925,
2012-02-07, 00:53:04,VALID,1009.48,VALID,0,VALID,104,VALID,0.112112,VALID,24.1404,VALID,86,VALID,0.783203,
2012-02-07, 00:54:04,VALID,1009.51,VALID,0,VALID,104,VALID,0,VALID,24.1617,VALID,100,VALID,0.446484,
2012-02-07, 00:55:04,VALID,1009.52,VALID,0,VALID,104,VALID,0,VALID,24.1404,VALID,102,VALID,1.06445,
2012-02-07, 00:56:04,VALID,1009.52,VALID,0,VALID,104,VALID,0,VALID,24.1812,VALID,99,VALID,0.713281,
2012-02-07, 00:57:04,VALID,1009.53,VALID,0,VALID,104,VALID,0.112112,VALID,24.1812,VALID,121,VALID,0.486328,
2012-02-07, 00:58:04,VALID,1009.51,VALID,0,VALID,104,VALID,0,VALID,24.1404,VALID,111,VALID,0.625781,
2012-02-07, 00:59:04,VALID,1009.52,VALID,0,VALID,104,VALID,0,VALID,24.1404,VALID,120,VALID,1.20039,
2012-02-07, 01:00:04,VALID,1009.5,VALID,0,VALID,104,VALID,0.112112,VALID,24.1617,VALID,149,VALID,0.502344,
2012-02-07, 01:01:04,VALID,1009.49,VALID,0,VALID,104,VALID,0,VALID,24.1209,VALID,140,VALID,0.978906,
2012-02-07, 01:02:04,VALID,1009.5,VALID,0,VALID,104,VALID,0,VALID,24.1227,VALID,135,VALID,0.719141,
2012-02-07, 01:03:04,VALID,1009.5,VALID,0,VALID,104,VALID,0.112112,VALID,24.1209,VALID,129,VALID,0.0878906,
2012-02-07, 01:04:04,VALID,1009.48,VALID,0,VALID,104,VALID,0,VALID,24.1227,VALID,129,VALID,0,
2012-02-07, 01:05:04,VALID,1009.49,VALID,0,VALID,104,VALID,0.112112,VALID,24.1227,VALID,129,VALID,0,
2012-02-07, 01:06:04,VALID,1009.46,VALID,0,VALID,104,VALID,0.112112,VALID,24.1014,VALID,129,VALID,0.149219,
2012-02-07, 01:07:04,VALID,1009.44,VALID,0,VALID,104,VALID,0.112112,VALID,24.1032,VALID,129,VALID,0,
2012-02-07, 01:08:04,VALID,1009.41,VALID,0,VALID,104,VALID,0,VALID,24.1227,VALID,129,VALID,0,
2012-02-07, 01:09:04,VALID,1009.41,VALID,0,VALID,104,VALID,0,VALID,24.1032,VALID,129,VALID,0.208203,
2012-02-07, 01:10:04,VALID,1009.4,VALID,0,VALID,104,VALID,0,VALID,24.1032,VALID,129,VALID,0.153125,
2012-02-07, 01:11:04,VALID,1009.42,VALID,0,VALID,104,VALID,0,VALID,24.1032,VALID,129,VALID,0.228125,
2012-02-07, 01:12:04,VALID,1009.42,VALID,0,VALID,104,VALID,0,VALID,24.1227,VALID,129,VALID,0,
2012-02-07, 01:13:04,VALID,1009.39,VALID,0,VALID,104,VALID,0,VALID,24.1227,VALID,129,VALID,0.292578,
2012-02-07, 01:14:04,VALID,1009.41,VALID,0,VALID,104,VALID,0,VALID,24.1227,VALID,129,VALID,0.285156,
2012-02-07, 01:15:04,VALID,1009.37,VALID,0,VALID,104,VALID,0,VALID,24.1227,VALID,129,VALID,0.395312,
2012-02-07, 01:16:04,VALID,1009.38,VALID,0,VALID,104,VALID,0,VALID,24.1227,VALID,129,VALID,0.480469,
2012-02-07, 01:17:04,VALID,1009.35,VALID,0,VALID,104,VALID,0,VALID,24.1227,VALID,129,VALID,0.625781,
2012-02-07, 01:18:04,VALID,1009.35,VALID,0,VALID,104,VALID,0,VALID,24.144,VALID,150,VALID,0.701953,
2012-02-07, 01:19:04,VALID,1009.32,VALID,0,VALID,104,VALID,0,VALID,24.1032,VALID,161,VALID,0.622656,
2012-02-07, 01:20:04,VALID,1009.32,VALID,0,VALID,104,VALID,0,VALID,24.1227,VALID,161,VALID,0.237891,
2012-02-07, 01:21:04,VALID,1009.3,VALID,0,VALID,104,VALID,0,VALID,24.1227,VALID,161,VALID,0.0878906,
2012-02-07, 01:22:04,VALID,1009.31,VALID,0,VALID,104,VALID,0,VALID,24.1032,VALID,161,VALID,0,
2012-02-07, 01:23:04,VALID,1009.28,VALID,0,VALID,104,VALID,0,VALID,24.1032,VALID,161,VALID,0.000390625,
2012-02-07, 01:24:04,VALID,1009.28,VALID,0,VALID,104,VALID,0,VALID,24.1227,VALID,161,VALID,0.259375,
2012-02-07, 01:25:04,VALID,1009.28,VALID,0,VALID,104,VALID,0,VALID,24.1227,VALID,161,VALID,0.220313,
2012-02-07, 01:26:04,VALID,1009.27,VALID,0,VALID,104,VALID,0,VALID,24.1422,VALID,161,VALID,0.216016,
2012-02-07, 01:27:04,VALID,1009.24,VALID,0,VALID,104,VALID,0,VALID,24.1422,VALID,161,VALID,0.140234,
2012-02-07, 01:28:04,VALID,1009.23,VALID,0,VALID,104,VALID,0,VALID,24.1422,VALID,161,VALID,0.0777344,
2012-02-07, 01:29:04,VALID,1009.24,VALID,0,VALID,104,VALID,0,VALID,24.1422,VALID,161,VALID,0,
2012-02-07, 01:30:04,VALID,1009.24,VALID,0,VALID,104,VALID,0,VALID,24.1422,VALID,161,VALID,0.264453,
2012-02-07, 01:31:04,VALID,1009.19,VALID,0,VALID,104,VALID,0,VALID,24.1422,VALID,129,VALID,1.21133,
2012-02-07, 01:32:04,VALID,1009.21,VALID,0,VALID,104,VALID,0,VALID,24.1227,VALID,138,VALID,1.08438,
2012-02-07, 01:33:04,VALID,1009.2,VALID,0,VALID,104,VALID,0,VALID,24.1617,VALID,123,VALID,0.709766,
2012-02-07, 01:34:04,VALID,1009.2,VALID,0,VALID,104,VALID,0,VALID,24.1617,VALID,115,VALID,0.482812,
2012-02-07, 01:35:04,VALID,1009.23,VALID,0,VALID,104,VALID,0,VALID,24.1617,VALID,114,VALID,0.223047,
2012-02-07, 01:36:04,VALID,1009.22,VALID,0,VALID,104,VALID,0,VALID,24.1812,VALID,114,VALID,0.34375,
2012-02-07, 01:37:04,VALID,1009.23,VALID,0,VALID,104,VALID,0,VALID,24.1812,VALID,114,VALID,0.24375,
2012-02-07, 01:38:04,VALID,1009.26,VALID,0,VALID,104,VALID,0,VALID,24.1812,VALID,116,VALID,0.590234,
2012-02-07, 01:39:04,VALID,1009.23,VALID,0,VALID,104,VALID,0,VALID,24.1617,VALID,129,VALID,0.446875,
2012-02-07, 01:40:04,VALID,1009.26,VALID,0,VALID,104,VALID,0,VALID,24.1812,VALID,129,VALID,0.665625,
2012-02-07, 01:41:04,VALID,1009.27,VALID,0,VALID,104,VALID,0,VALID,24.1812,VALID,152,VALID,0.719141,
2012-02-07, 01:42:04,VALID,1009.29,VALID,0,VALID,104,VALID,0,VALID,24.1617,VALID,124,VALID,0.890234,
2012-02-07, 01:43:04,VALID,1009.3,VALID,0,VALID,104,VALID,0,VALID,24.1227,VALID,123,VALID,0.8,
2012-02-07, 01:44:04,VALID,1009.32,VALID,0,VALID,104,VALID,0,VALID,24.1422,VALID,123,VALID,0.501562,
2012-02-07, 01:45:04,VALID,1009.28,VALID,0,VALID,104,VALID,0,VALID,24.1422,VALID,123,VALID,0.519141,
2012-02-07, 01:46:04,VALID,1009.29,VALID,0,VALID,104,VALID,0,VALID,24.1422,VALID,123,VALID,0.303906,
2012-02-07, 01:47:04,VALID,1009.33,VALID,0,VALID,104,VALID,0,VALID,24.1422,VALID,109,VALID,0.548828,
2012-02-07, 01:48:04,VALID,1009.33,VALID,0,VALID,104,VALID,0,VALID,24.1227,VALID,107,VALID,0.367188,
2012-02-07, 01:49:04,VALID,1009.32,VALID,0,VALID,104,VALID,0,VALID,24.1422,VALID,100,VALID,0.446875,
2012-02-07, 01:50:04,VALID,1009.27,VALID,0,VALID,104,VALID,0,VALID,24.1422,VALID,66,VALID,0.608203,
2012-02-07, 01:51:04,VALID,1009.3,VALID,0,VALID,104,VALID,0,VALID,24.1227,VALID,53,VALID,0.633203,
2012-02-07, 01:52:04,VALID,1009.26,VALID,0,VALID,104,VALID,0,VALID,24.1617,VALID,53,VALID,0.705078,
2012-02-07, 01:53:04,VALID,1009.28,VALID,0,VALID,104,VALID,0,VALID,24.1227,VALID,51,VALID,0.551172,
2012-02-07, 01:54:04,VALID,1009.24,VALID,0,VALID,104,VALID,0,VALID,24.1227,VALID,51,VALID,0.353516,
2012-02-07, 01:55:04,VALID,1009.23,VALID,0,VALID,104,VALID,0,VALID,24.1227,VALID,51,VALID,0.522266,
2012-02-07, 01:56:04,VALID,1009.23,VALID,0,VALID,104,VALID,0,VALID,24.1227,VALID,51,VALID,0.722266,
2012-02-07, 01:57:04,VALID,1009.24,VALID,0,VALID,104,VALID,0,VALID,24.1032,VALID,51,VALID,0.316797,
2012-02-07, 01:58:04,VALID,1009.22,VALID,0,VALID,104,VALID,0,VALID,24.1227,VALID,51,VALID,0.0628906,
2012-02-07, 01:59:04,VALID,1009.2,VALID,0,VALID,104,VALID,0,VALID,24.1032,VALID,51,VALID,0,
2012-02-07, 02:00:04,VALID,1009.18,VALID,0,VALID,104,VALID,0,VALID,24.1032,VALID,51,VALID,0.0515625,
2012-02-07, 02:01:04,VALID,1009.17,VALID,0,VALID,104,VALID,0,VALID,24.1227,VALID,51,VALID,0.557422,
2012-02-07, 02:02:04,VALID,1009.15,VALID,0,VALID,104,VALID,0,VALID,24.1227,VALID,51,VALID,0.600391,
2012-02-07, 02:03:04,VALID,1009.16,VALID,0,VALID,104,VALID,0,VALID,24.1032,VALID,51,VALID,0.377344,
2012-02-07, 02:04:04,VALID,1009.11,VALID,0,VALID,104,VALID,0,VALID,24.1032,VALID,51,VALID,0.34375,
2012-02-07, 02:05:04,VALID,1009.11,VALID,0,VALID,104,VALID,0,VALID,24.1245,VALID,51,VALID,0.155859,
2012-02-07, 02:06:04,VALID,1009.12,VALID,0,VALID,104,VALID,0,VALID,24.1032,VALID,97,VALID,0.730469,
2012-02-07, 02:07:04,VALID,1009.12,VALID,0,VALID,104,VALID,0,VALID,24.1032,VALID,137,VALID,0.921875,
2012-02-07, 02:08:04,VALID,1009.09,VALID,0,VALID,104,VALID,0,VALID,24.0643,VALID,148,VALID,0.726563,
2012-02-07, 02:09:04,VALID,1009.08,VALID,0,VALID,104,VALID,0,VALID,24.0643,VALID,152,VALID,0.852734,
2012-02-07, 02:10:04,VALID,1009.09,VALID,0,VALID,104,VALID,0,VALID,24.0643,VALID,152,VALID,0.509766,
2012-02-07, 02:11:04,VALID,1009.08,VALID,0,VALID,104,VALID,0,VALID,24.0448,VALID,152,VALID,0.430859,
2012-02-07, 02:12:04,VALID,1009.05,VALID,0,VALID,104,VALID,0,VALID,24.0253,VALID,162,VALID,0.813672,
2012-02-07, 02:13:04,VALID,1009.04,VALID,0,VALID,104,VALID,0,VALID,24.0253,VALID,162,VALID,0.696094,
2012-02-07, 02:14:04,VALID,1009.02,VALID,0,VALID,104,VALID,0,VALID,24.0253,VALID,162,VALID,0.353906,
2012-02-07, 02:15:04,VALID,1009.03,VALID,0,VALID,104,VALID,0,VALID,24.0271,VALID,137,VALID,0.765234,
2012-02-07, 02:16:04,VALID,1009.01,VALID,0,VALID,104,VALID,0,VALID,24.0058,VALID,126,VALID,0.425781,
2012-02-07, 02:17:04,VALID,1009.04,VALID,0,VALID,104,VALID,0,VALID,24.0058,VALID,88,VALID,0.713672,
2012-02-07, 02:18:04,VALID,1009.04,VALID,0,VALID,104,VALID,0,VALID,23.9863,VALID,88,VALID,0.293359,
2012-02-07, 02:19:04,VALID,1009.05,VALID,0,VALID,104,VALID,0,VALID,23.9863,VALID,105,VALID,0.788281,
2012-02-07, 02:20:04,VALID,1009.06,VALID,0,VALID,104,VALID,0,VALID,23.9863,VALID,113,VALID,0.508594,
2012-02-07, 02:21:04,VALID,1009.08,VALID,0,VALID,104,VALID,0,VALID,23.9881,VALID,113,VALID,0.432031,
2012-02-07, 02:22:04,VALID,1009.08,VALID,0,VALID,104,VALID,0,VALID,23.9668,VALID,163,VALID,0.351953,
2012-02-07, 02:23:04,VALID,1009.1,VALID,0,VALID,104,VALID,0,VALID,23.9473,VALID,163,VALID,0.469141,
2012-02-07, 02:24:04,VALID,1009.09,VALID,0,VALID,104,VALID,0,VALID,23.9881,VALID,163,VALID,0.615625,
2012-02-07, 02:25:04,VALID,1009.07,VALID,0,VALID,104,VALID,0,VALID,23.9668,VALID,163,VALID,0.488672,
2012-02-07, 02:26:04,VALID,1009.11,VALID,0,VALID,104,VALID,0,VALID,23.9863,VALID,163,VALID,0.0617188,
2012-02-07, 02:27:04,VALID,1009.11,VALID,0,VALID,104,VALID,0,VALID,24.0076,VALID,163,VALID,0.176953,
2012-02-07, 02:28:04,VALID,1009.12,VALID,0,VALID,104,VALID,0,VALID,23.9668,VALID,163,VALID,0.171094,
2012-02-07, 02:29:04,VALID,1009.11,VALID,0,VALID,104,VALID,0,VALID,23.9881,VALID,163,VALID,0,
2012-02-07, 02:30:04,VALID,1009.12,VALID,0,VALID,104,VALID,0,VALID,23.9881,VALID,163,VALID,0,
2012-02-07, 02:31:04,VALID,1009.12,VALID,0,VALID,104,VALID,0,VALID,23.9668,VALID,163,VALID,0.00234375,
2012-02-07, 02:32:04,VALID,1009.09,VALID,0,VALID,104,VALID,0,VALID,23.9863,VALID,163,VALID,0.272266,
2012-02-07, 02:33:04,VALID,1009.12,VALID,0,VALID,104,VALID,0,VALID,23.9668,VALID,163,VALID,0.355078,
2012-02-07, 02:34:04,VALID,1009.1,VALID,0,VALID,104,VALID,0,VALID,23.9668,VALID,163,VALID,0.201562,
2012-02-07, 02:35:04,VALID,1009.1,VALID,0,VALID,104,VALID,0,VALID,23.9863,VALID,163,VALID,0.154297,
2012-02-07, 02:36:04,VALID,1009.09,VALID,0,VALID,104,VALID,0,VALID,24.0058,VALID,163,VALID,0.136328,
2012-02-07, 02:37:04,VALID,1009.08,VALID,0,VALID,104,VALID,0,VALID,24.0058,VALID,163,VALID,0.205859,
2012-02-07, 02:38:04,VALID,1009.07,VALID,0,VALID,104,VALID,0.112112,VALID,23.9845,VALID,163,VALID,0.0933594,
2012-02-07, 02:39:04,VALID,1009.07,VALID,0,VALID,104,VALID,0.112112,VALID,23.9845,VALID,163,VALID,0,
2012-02-07, 02:40:04,VALID,1009.05,VALID,0,VALID,104,VALID,0.112112,VALID,24.004,VALID,163,VALID,0,
2012-02-07, 02:41:04,VALID,1009.05,VALID,0,VALID,104,VALID,0,VALID,24.004,VALID,163,VALID,0,
2012-02-07, 02:42:04,VALID,1009.04,VALID,0,VALID,104,VALID,0.112112,VALID,24.0235,VALID,163,VALID,0,
2012-02-07, 02:43:04,VALID,1009.02,VALID,0,VALID,104,VALID,0,VALID,24.0448,VALID,163,VALID,0,
2012-02-07, 02:44:04,VALID,1009.01,VALID,0,VALID,104,VALID,0.112112,VALID,24.0429,VALID,163,VALID,0.0378906,
2012-02-07, 02:45:04,VALID,1009.03,VALID,0,VALID,104,VALID,0,VALID,24.0448,VALID,163,VALID,0.544531,
2012-02-07, 02:46:04,VALID,1009.02,VALID,0,VALID,104,VALID,0.112112,VALID,24.0429,VALID,163,VALID,0.337891,
2012-02-07, 02:47:04,VALID,1009.02,VALID,0,VALID,104,VALID,0.112112,VALID,24.0429,VALID,157,VALID,0.533203,
2012-02-07, 02:48:04,VALID,1009.01,VALID,0,VALID,104,VALID,0.112112,VALID,24.0235,VALID,157,VALID,0.351953,
2012-02-07, 02:49:04,VALID,1009.02,VALID,0,VALID,104,VALID,0.112112,VALID,24.0235,VALID,153,VALID,0.570313,
2012-02-07, 02:50:04,VALID,1009.01,VALID,0,VALID,104,VALID,0.112112,VALID,24.0235,VALID,153,VALID,0.414844,
2012-02-07, 02:51:04,VALID,1009.01,VALID,0,VALID,104,VALID,0.112112,VALID,24.0235,VALID,153,VALID,0.353516,
2012-02-07, 02:52:04,VALID,1009,VALID,0,VALID,104,VALID,0.112112,VALID,24.0429,VALID,152,VALID,0.321484,
2012-02-07, 02:53:04,VALID,1009,VALID,0,VALID,104,VALID,0,VALID,24.0058,VALID,140,VALID,0.647266,
2012-02-07, 02:54:04,VALID,1008.98,VALID,0,VALID,104,VALID,0,VALID,24.0253,VALID,140,VALID,0.600391,
2012-02-07, 02:55:04,VALID,1008.97,VALID,0,VALID,104,VALID,0,VALID,24.0253,VALID,140,VALID,0.499609,
2012-02-07, 02:56:04,VALID,1008.97,VALID,0,VALID,104,VALID,0,VALID,24.0661,VALID,140,VALID,0.301953,
2012-02-07, 02:57:04,VALID,1008.98,VALID,0,VALID,104,VALID,0,VALID,24.0643,VALID,140,VALID,0.179688,
2012-02-07, 02:58:04,VALID,1008.95,VALID,0,VALID,104,VALID,0,VALID,24.0643,VALID,140,VALID,0.00664063,
2012-02-07, 02:59:04,VALID,1008.94,VALID,0,VALID,104,VALID,0,VALID,24.0643,VALID,140,VALID,0.114453,
2012-02-07, 03:00:04,VALID,1008.92,VALID,0,VALID,104,VALID,0,VALID,24.0643,VALID,140,VALID,0.204297,
2012-02-07, 03:01:04,VALID,1008.89,VALID,0,VALID,104,VALID,0,VALID,24.0448,VALID,140,VALID,0.366406,
2012-02-07, 03:02:04,VALID,1008.89,VALID,0,VALID,104,VALID,0,VALID,24.0856,VALID,140,VALID,0.117969,
2012-02-07, 03:03:04,VALID,1008.92,VALID,0,VALID,104,VALID,0,VALID,24.0448,VALID,140,VALID,0.13125,
2012-02-07, 03:04:04,VALID,1008.89,VALID,0,VALID,104,VALID,0,VALID,24.0253,VALID,114,VALID,0.642578,
2012-02-07, 03:05:04,VALID,1008.93,VALID,0,VALID,104,VALID,0,VALID,24.0058,VALID,114,VALID,0.367188,
2012-02-07, 03:06:04,VALID,1008.89,VALID,0,VALID,104,VALID,0,VALID,24.0058,VALID,114,VALID,0.598828,
2012-02-07, 03:07:04,VALID,1008.89,VALID,0,VALID,104,VALID,0,VALID,24.0058,VALID,125,VALID,0.585547,
2012-02-07, 03:08:04,VALID,1008.9,VALID,0,VALID,104,VALID,0,VALID,24.0058,VALID,139,VALID,0.847656,
2012-02-07, 03:09:04,VALID,1008.88,VALID,0,VALID,104,VALID,0,VALID,23.9863,VALID,131,VALID,0.792578,
2012-02-07, 03:10:04,VALID,1008.87,VALID,0,VALID,104,VALID,0,VALID,23.9863,VALID,125,VALID,0.860547,
2012-02-07, 03:11:04,VALID,1008.85,VALID,0,VALID,104,VALID,0,VALID,23.9863,VALID,119,VALID,0.498047,
2012-02-07, 03:12:04,VALID,1008.83,VALID,0,VALID,104,VALID,0,VALID,23.9668,VALID,119,VALID,0.244922,
2012-02-07, 03:13:04,VALID,1008.82,VALID,0,VALID,104,VALID,0,VALID,23.9668,VALID,119,VALID,0.264453,
2012-02-07, 03:14:04,VALID,1008.81,VALID,0,VALID,104,VALID,0,VALID,23.9668,VALID,119,VALID,0.386719,
2012-02-07, 03:15:04,VALID,1008.8,VALID,0,VALID,104,VALID,0,VALID,23.9686,VALID,119,VALID,0.114453,
2012-02-07, 03:16:04,VALID,1008.78,VALID,0,VALID,104,VALID,0,VALID,23.9278,VALID,119,VALID,0.427344,
2012-02-07, 03:17:04,VALID,1008.79,VALID,0,VALID,104,VALID,0,VALID,23.9084,VALID,119,VALID,0.4375,
2012-02-07, 03:18:04,VALID,1008.78,VALID,0,VALID,104,VALID,0,VALID,23.9084,VALID,119,VALID,0.457031,
2012-02-07, 03:19:04,VALID,1008.8,VALID,0,VALID,104,VALID,0,VALID,23.8889,VALID,119,VALID,0.299219,
2012-02-07, 03:20:04,VALID,1008.8,VALID,0,VALID,104,VALID,0,VALID,23.8889,VALID,119,VALID,0.315234,
2012-02-07, 03:21:04,VALID,1008.82,VALID,0,VALID,104,VALID,0,VALID,23.9084,VALID,119,VALID,0.411328,
2012-02-07, 03:22:04,VALID,1008.83,VALID,0,VALID,104,VALID,0,VALID,23.8889,VALID,119,VALID,0.420312,
2012-02-07, 03:23:04,VALID,1008.8,VALID,0,VALID,104,VALID,0,VALID,23.8889,VALID,119,VALID,0.473828,
2012-02-07, 03:24:04,VALID,1008.8,VALID,0,VALID,104,VALID,0,VALID,23.8694,VALID,120,VALID,0.576953,
2012-02-07, 03:25:04,VALID,1008.82,VALID,0,VALID,104,VALID,0,VALID,23.8499,VALID,134,VALID,0.591016,
2012-02-07, 03:26:04,VALID,1008.83,VALID,0,VALID,104,VALID,0,VALID,23.8712,VALID,134,VALID,0.610547,
2012-02-07, 03:27:04,VALID,1008.82,VALID,0,VALID,104,VALID,0,VALID,23.8517,VALID,134,VALID,0.473437,
2012-02-07, 03:28:04,VALID,1008.84,VALID,0,VALID,104,VALID,0,VALID,23.8304,VALID,134,VALID,0.573828,
2012-02-07, 03:29:04,VALID,1008.8,VALID,0,VALID,104,VALID,0,VALID,23.8109,VALID,134,VALID,0.351953,
2012-02-07, 03:30:04,VALID,1008.81,VALID,0,VALID,104,VALID,0,VALID,23.7914,VALID,134,VALID,0.355469,
2012-02-07, 03:31:04,VALID,1008.83,VALID,0,VALID,104,VALID,0,VALID,23.7914,VALID,134,VALID,0.245703,
2012-02-07, 03:32:04,VALID,1008.81,VALID,0,VALID,104,VALID,0,VALID,23.8109,VALID,134,VALID,0.283203,
2012-02-07, 03:33:04,VALID,1008.78,VALID,0,VALID,104,VALID,0,VALID,23.7914,VALID,134,VALID,0.242188,
2012-02-07, 03:34:04,VALID,1008.79,VALID,0,VALID,104,VALID,0,VALID,23.7914,VALID,134,VALID,0.141797,
2012-02-07, 03:35:04,VALID,1008.77,VALID,0,VALID,104,VALID,0,VALID,23.7914,VALID,134,VALID,0.113281,
2012-02-07, 03:36:04,VALID,1008.79,VALID,0,VALID,104,VALID,0,VALID,23.7914,VALID,134,VALID,0.585547,
2012-02-07, 03:37:04,VALID,1008.79,VALID,0,VALID,104,VALID,0,VALID,23.7914,VALID,187,VALID,0.446094,
2012-02-07, 03:38:04,VALID,1008.78,VALID,0,VALID,104,VALID,0,VALID,23.772,VALID,188,VALID,0.612891,
2012-02-07, 03:39:04,VALID,1008.79,VALID,0,VALID,104,VALID,0,VALID,23.7914,VALID,188,VALID,0.544922,
2012-02-07, 03:40:04,VALID,1008.79,VALID,0,VALID,104,VALID,0,VALID,23.7914,VALID,188,VALID,0.614062,
2012-02-07, 03:41:04,VALID,1008.78,VALID,0,VALID,104,VALID,0,VALID,23.7914,VALID,179,VALID,0.664453,
2012-02-07, 03:42:04,VALID,1008.76,VALID,0,VALID,104,VALID,0,VALID,23.7914,VALID,184,VALID,0.521875,
2012-02-07, 03:43:04,VALID,1008.71,VALID,0,VALID,104,VALID,0,VALID,23.7914,VALID,188,VALID,0.710547,
2012-02-07, 03:44:04,VALID,1008.69,VALID,0,VALID,104,VALID,0,VALID,23.8127,VALID,188,VALID,0.475,
2012-02-07, 03:45:04,VALID,1008.69,VALID,0,VALID,104,VALID,0,VALID,23.7914,VALID,188,VALID,0.233203,
2012-02-07, 03:46:04,VALID,1008.68,VALID,0,VALID,104,VALID,0,VALID,23.7914,VALID,176,VALID,0.419922,
2012-02-07, 03:47:04,VALID,1008.66,VALID,0,VALID,104,VALID,0,VALID,23.8127,VALID,165,VALID,0.776563,
2012-02-07, 03:48:04,VALID,1008.67,VALID,0,VALID,104,VALID,0,VALID,23.8127,VALID,163,VALID,0.400391,
2012-02-07, 03:49:04,VALID,1008.67,VALID,0,VALID,104,VALID,0,VALID,23.7914,VALID,163,VALID,0.35,
2012-02-07, 03:50:04,VALID,1008.66,VALID,0,VALID,104,VALID,0,VALID,23.772,VALID,163,VALID,0.415234,
2012-02-07, 03:51:04,VALID,1008.68,VALID,0,VALID,104,VALID,0,VALID,23.772,VALID,163,VALID,0.190234,
2012-02-07, 03:52:04,VALID,1008.69,VALID,0,VALID,104,VALID,0,VALID,23.7738,VALID,163,VALID,0.000390625,